contact:dominique.lefevre@mio.osupytheas.fr, maurice.libes@osupytheas.fr
Project:EMSO Ligure-ouest http://www.emso-fr.org/EMSO-France
Sensor Aquadopp, line 13 Serial AQD14315 
DOI : "https://doi.org/10.17882/74513; https://doi.org/10.17882/83244" 
Title:EMSO Ligure Ouest : Data ligne ALBATROSS capteur AQUADOPP - deploiement 2021
Id,Date,Profondeur,Latitude,Longitude,X_East,Y_North,Z_Up,Amplitude_X,Amplitude_Y,Amplitude_Z,Batterie,SoundSpeed,Heading,Pitch,Roll,Pressure,Temperature,Speed,Direction
, , m, degrees North, degrees East, m.s-1, m.s-1,m.s-1, 1, 1, 1, Volt, m.s-1, degree, degree, degree, dbar, degree_C, m.s-1, degree
13,2021-12-16T22:00:00,2400.0,42.79,6.0312,0.01,0.026,0.02,69.0,56.0,61.0,12.5,1504.8,41.5,-0.5,-0.3,2394.763,13.33,0.027,21.0
13,2021-12-16T22:30:00,2400.0,42.79,6.0312,0.05,0.01,0.029,66.0,63.0,59.0,12.5,1504.8,39.6,-0.5,-0.4,2394.745,13.33,0.05,78.7
13,2021-12-16T23:00:00,2400.0,42.79,6.0312,0.008,0.04,-0.027,62.0,56.0,59.0,12.5,1504.8,40.9,-0.3,-0.3,2394.743,13.33,0.04,11.3
13,2021-12-16T23:30:00,2400.0,42.79,6.0312,0.036,0.019,-0.008,64.0,59.0,61.0,12.5,1504.8,43.1,-0.2,-0.2,2394.735,13.33,0.04,62.2
13,2021-12-17T00:00:00,2400.0,42.79,6.0312,0.011,0.022,-0.025,67.0,57.0,62.0,12.5,1504.8,47.7,-0.2,-0.4,2394.712,13.33,0.024,26.6
13,2021-12-17T00:30:00,2400.0,42.79,6.0312,0.006,0.046,-0.017,65.0,59.0,61.0,12.5,1504.8,50.1,-0.2,-0.3,2394.706,13.33,0.046,7.4
13,2021-12-17T01:00:00,2400.0,42.79,6.0312,0.036,0.047,0.005,66.0,60.0,62.0,12.5,1504.8,51.2,-0.3,-0.3,2394.674,13.33,0.059,37.5
13,2021-12-17T01:30:00,2400.0,42.79,6.0312,0.03,0.03,-0.015,66.0,60.0,61.0,12.5,1504.8,49.4,-0.3,-0.2,2394.699,13.33,0.042,45.0
13,2021-12-17T02:00:00,2400.0,42.79,6.0312,0.016,0.064,-0.009,68.0,58.0,61.0,12.5,1504.8,53.8,-0.1,-0.3,2394.706,13.33,0.065,14.0
13,2021-12-17T02:30:00,2400.0,42.79,6.0312,0.031,0.034,-0.015,65.0,60.0,61.0,12.5,1504.8,56.4,-0.2,-0.4,2394.715,13.33,0.046,42.4
13,2021-12-17T03:00:00,2400.0,42.79,6.0312,0.037,0.062,-0.012,67.0,62.0,60.0,12.5,1504.8,46.4,-0.4,-0.5,2394.801,13.33,0.072,30.8
13,2021-12-17T03:30:00,2400.0,42.79,6.0312,0.055,0.055,-0.032,67.0,60.0,61.0,12.5,1504.8,60.9,-0.3,-0.3,2394.806,13.33,0.077,45.0
13,2021-12-17T04:00:00,2400.0,42.79,6.0312,0.026,0.073,-0.015,66.0,61.0,64.0,12.5,1504.8,45.6,-0.2,-0.4,2394.825,13.33,0.077,19.6
13,2021-12-17T04:30:00,2400.0,42.79,6.0312,0.058,0.035,-0.01,68.0,60.0,60.0,12.5,1504.8,62.8,-0.2,-0.3,2394.829,13.33,0.067,58.9
13,2021-12-17T05:00:00,2400.0,42.79,6.0312,0.035,0.054,0.0,64.0,56.0,58.0,12.5,1504.8,33.8,-0.4,-0.1,2394.871,13.33,0.064,33.0
13,2021-12-17T05:30:00,2400.0,42.79,6.0312,0.057,0.006,-0.018,65.0,57.0,59.0,12.5,1504.8,64.2,-0.5,-0.4,2394.917,13.33,0.057,84.0
13,2021-12-17T06:00:00,2400.0,42.79,6.0312,0.048,0.009,0.004,65.0,58.0,59.0,12.5,1504.8,60.9,-0.2,-0.5,2394.889,13.33,0.048,79.4
13,2021-12-17T06:30:00,2400.0,42.79,6.0312,0.07,0.039,0.005,63.0,57.0,60.0,12.5,1504.8,36.1,-0.1,-0.4,2394.89,13.33,0.08,60.9
13,2021-12-17T07:00:00,2400.0,42.79,6.0312,0.059,0.011,-0.001,62.0,56.0,59.0,12.5,1504.8,65.8,-0.4,-0.5,2394.879,13.33,0.06,79.4
13,2021-12-17T07:30:00,2400.0,42.79,6.0312,0.075,0.017,-0.02,65.0,57.0,56.0,12.5,1504.8,63.0,-0.2,-0.4,2394.868,13.33,0.076,77.2
13,2021-12-17T08:00:00,2400.0,42.79,6.0312,0.041,0.042,0.005,64.0,57.0,59.0,12.5,1504.8,29.0,-0.3,-0.3,2394.917,13.33,0.058,44.3
13,2021-12-17T08:30:00,2400.0,42.79,6.0312,0.039,0.03,-0.025,64.0,56.0,60.0,12.5,1504.8,23.4,-0.1,-0.3,2394.862,13.33,0.049,52.4
13,2021-12-17T09:00:00,2400.0,42.79,6.0312,0.043,0.01,-0.037,63.0,57.0,59.0,12.5,1504.8,41.8,-0.1,-0.3,2394.831,13.33,0.044,76.9
13,2021-12-17T09:30:00,2400.0,42.79,6.0312,0.046,0.023,-0.004,62.0,57.0,60.0,12.5,1504.8,42.1,-0.1,-0.3,2394.876,13.33,0.051,63.4
13,2021-12-17T10:00:00,2400.0,42.79,6.0312,0.055,0.027,0.006,63.0,57.0,59.0,12.5,1504.8,31.2,0.0,-0.3,2394.864,13.33,0.061,63.9
13,2021-12-17T10:30:00,2400.0,42.79,6.0312,0.049,0.033,-0.004,66.0,56.0,59.0,12.5,1504.8,29.3,-0.6,-0.3,2394.816,13.33,0.059,56.0
13,2021-12-17T11:00:00,2400.0,42.79,6.0312,0.041,-0.001,-0.027,63.0,56.0,61.0,12.5,1504.8,22.1,-0.3,-0.4,2394.813,13.33,0.041,91.4
13,2021-12-17T11:30:00,2400.0,42.79,6.0312,0.032,0.01,-0.008,65.0,57.0,61.0,12.5,1504.8,21.7,-0.9,-0.4,2394.765,13.33,0.033,72.6
13,2021-12-17T12:00:00,2400.0,42.79,6.0312,0.034,0.02,-0.041,63.0,57.0,59.0,12.5,1504.8,18.2,0.0,-0.2,2394.763,13.33,0.039,59.5
13,2021-12-17T12:30:00,2400.0,42.79,6.0312,0.037,0.007,-0.004,62.0,57.0,59.0,12.5,1504.8,22.9,0.2,-0.4,2394.777,13.33,0.037,79.3
13,2021-12-17T13:00:00,2400.0,42.79,6.0312,0.028,0.027,0.013,66.0,56.0,58.0,12.5,1504.8,20.6,0.3,-0.2,2394.759,13.33,0.038,46.0
13,2021-12-17T13:30:00,2400.0,42.79,6.0312,0.03,0.023,0.023,66.0,60.0,56.0,12.5,1504.8,26.3,-0.3,-0.2,2394.719,13.33,0.037,52.5
13,2021-12-17T14:00:00,2400.0,42.79,6.0312,0.026,0.015,-0.046,65.0,56.0,59.0,12.5,1504.8,31.2,-0.5,-0.3,2394.699,13.33,0.03,60.0
13,2021-12-17T14:30:00,2400.0,42.79,6.0312,0.021,0.032,-0.021,67.0,61.0,58.0,12.5,1504.8,34.4,-0.4,-0.3,2394.771,13.33,0.038,33.3
13,2021-12-17T15:00:00,2400.0,42.79,6.0312,0.013,0.054,0.01,65.0,57.0,60.0,12.5,1504.8,31.8,-0.6,-0.2,2394.795,13.33,0.055,13.5
13,2021-12-17T15:30:00,2400.0,42.79,6.0312,0.012,0.036,-0.035,64.0,57.0,63.0,12.5,1504.8,36.0,-0.3,-0.3,2394.753,13.33,0.037,18.4
13,2021-12-17T16:00:00,2400.0,42.79,6.0312,0.016,0.064,-0.001,64.0,58.0,63.0,12.5,1504.8,31.2,-0.4,-0.3,2394.798,13.33,0.065,14.0
13,2021-12-17T16:30:00,2400.0,42.79,6.0312,0.014,0.047,-0.002,65.0,57.0,57.0,12.5,1504.8,31.9,-0.4,-0.4,2394.851,13.33,0.049,16.6
13,2021-12-17T17:00:00,2400.0,42.79,6.0312,0.007,0.055,0.006,63.0,58.0,59.0,12.5,1504.8,34.6,-0.5,-0.4,2394.836,13.33,0.055,7.3
13,2021-12-17T17:30:00,2400.0,42.79,6.0312,0.008,0.06,0.014,63.0,58.0,61.0,12.5,1504.8,34.6,-0.5,-0.3,2394.855,13.33,0.06,7.6
13,2021-12-17T18:00:00,2400.0,42.79,6.0312,0.01,0.056,-0.012,64.0,59.0,59.0,12.5,1504.8,32.2,-0.5,-0.4,2394.873,13.33,0.056,10.1
13,2021-12-17T18:30:00,2400.0,42.79,6.0312,0.028,0.065,0.015,67.0,58.0,60.0,12.5,1504.8,16.8,-0.4,-0.3,2394.821,13.33,0.07,23.3
13,2021-12-17T19:00:00,2400.0,42.79,6.0312,0.028,0.057,-0.012,64.0,56.0,57.0,12.5,1504.8,22.5,-0.2,-0.1,2394.836,13.33,0.063,26.2
13,2021-12-17T19:30:00,2400.0,42.79,6.0312,0.026,0.069,-0.021,67.0,57.0,62.0,12.5,1504.8,32.6,-0.4,-0.4,2394.828,13.33,0.073,20.6
13,2021-12-17T20:00:00,2400.0,42.79,6.0312,-0.016,0.067,-0.016,64.0,60.0,61.0,12.5,1504.8,16.6,-0.2,-0.5,2394.795,13.33,0.068,346.6
13,2021-12-17T20:30:00,2400.0,42.79,6.0312,0.008,0.075,-0.05,65.0,59.0,59.0,12.5,1504.8,21.1,-0.4,-0.5,2394.8,13.33,0.075,6.1
13,2021-12-17T21:00:00,2400.0,42.79,6.0312,0.047,0.046,-0.033,64.0,59.0,59.0,12.5,1504.8,45.7,-0.6,-0.4,2394.783,13.33,0.065,45.6
13,2021-12-17T21:30:00,2400.0,42.79,6.0312,0.03,0.05,0.01,65.0,55.0,59.0,12.5,1504.8,13.1,-0.4,-0.3,2394.768,13.33,0.058,31.0
